Location: Ward Pound Ridge Reservation
(41.2500°N, 73.6000°W)
Time: 03:11:16
(UTC-04:00)

Envisat - Pass Details

Date: 15 October 2017
Orbit: 764 x 766 km, 98.2° (Epoch: 19 October)

Event Time Altitude Azimuth Distance (km) Brightness Sun altitude
Exits shadow 19:43:02 25° 60° (ENE) 1,508 4.1 -17.7°
Drops below altitude 10° 19:46:49 10° 12° (NNE) 2,310 5.4 -18.4°
Sets 19:49:27 0° 360° (N) 3,240 6.3 -18.9°
